Location: *
(45.9959°N, 18.6692°E)
Time: 05:57:32
(UTC+00:00)

Daily predictions for brighter satellites

Satellite Brightness Start Highest point End
(mag) Time Altitude Azimuth Time Altitude Azimuth Time Altitude Azimuth
CZ-2D R/B 3.3 00:00:29 10° NNE 00:04:27 39° ENE 00:04:27 39° ENE
Cosmos 2333 Rocket 3.5 00:03:57 10° NNW 00:07:04 34° NNW 00:07:04 34° NNW
Cosmos 2237 Rocket 3.4 00:10:32 10° NNW 00:15:49 38° NE 00:17:06 34° E
Cosmos 2285 Rocket 4.2 00:20:09 68° NNE 00:20:09 68° NNE 00:25:43 10° NNE
Cosmos 2034 Rocket 4.3 00:12:57 10° N 00:19:07 64° ENE 00:19:07 64° ENE
Meteor 1-27 Rocket 4.3 00:24:54 53° ENE 00:24:54 53° ENE 00:29:48 10° NNE
Cosmos 1898 Rocket 4.3 00:31:30 47° NNE 00:31:30 47° NNE 00:35:11 10° NNE
SL-16 R/B 2.7 00:31:32 64° NNW 00:31:32 64° NNW 00:36:47 10° NNW
Cosmos 2297 Rocket 3.4 00:36:37 32° ESE 00:36:37 32° ESE 00:41:30 10° NE
Meteor 1-11 Rocket 4.1 00:37:31 10° NNW 00:42:22 60° NNW 00:42:22 60° NNW
Cosmos 2219 3.8 00:45:56 50° E 00:45:56 50° E 00:51:14 10° NE
USA 234 4.4 00:42:25 10° E 00:48:24 40° NNE 00:54:23 10° NW
Cosmos 2219 Rocket 3.9 00:46:57 10° NW 00:49:01 22° NW 00:49:01 22° NW
NOSS 3-2 (A) 4.0 00:55:27 43° ESE 00:55:39 43° ESE 01:01:37 10° NE
CENTAUR R/B 3.9 00:59:00 23° SE 01:00:30 25° ESE 01:05:46 10° ENE
Cosmos 2227 Rocket 2.8 01:02:32 45° ESE 01:02:58 46° ESE 01:08:21 10° NE
IRS-1D 3.6 00:58:11 10° NNE 01:02:48 70° NE 01:02:48 70° NE
Cosmos 2346 Rocket 4.3 01:05:08 73° WNW 01:05:08 73° WNW 01:11:11 10° N
ADEOS II 2.3 01:02:44 10° NNE 01:07:59 62° ESE 01:08:11 62° ESE
Cosmos 2150 Rocket 4.5 01:10:04 52° SE 01:10:31 53° ESE 01:15:50 10° NNE
Cosmos 2298 Rocket 4.3 01:11:01 58° ESE 01:11:14 59° ESE 01:16:29 10° NNE
COSMOS 2428 4.5 01:08:19 10° NW 01:10:03 19° NW 01:10:03 19° NW
SJ 16-02 3.1 01:14:58 24° NNW 01:14:58 24° NNW 01:17:24 10° N
Okean 1-7 3.7 01:18:15 50° E 01:18:15 50° E 01:22:26 10° NNE
Cosmos 1980 3.7 01:13:08 10° NNW 01:18:03 64° WNW 01:18:03 64° WNW
Cosmos 2242 Rocket 3.9 01:19:37 64° N 01:19:37 64° N 01:23:31 10° N
Resurs 1-4 Rocket 2.8 01:14:34 10° N 01:18:58 41° NW 01:18:58 41° NW
IDEFIX/ARIANE 42P 4.4 01:17:12 10° NE 01:21:31 26° E 01:24:49 14° SE
Cosmos 1703 Rocket 3.9 01:23:06 64° E 01:23:06 64° E 01:27:23 10° NNE
STARLINK-1031 4.2 01:26:52 55° ENE 01:26:52 55° ENE 01:30:16 10° ENE
NOSS 3-2 (C) 4.0 01:25:54 38° SSE 01:27:21 45° ESE 01:33:24 10° NE
STARLINK-1024 4.2 01:30:03 53° E 01:30:03 53° E 01:33:22 10° ENE
ARIANE 5 R/B 2.7 01:24:43 10° NNE 01:29:56 67° ESE 01:31:01 53° SSE
STARLINK-1035 4.0 01:34:49 61° ENE 01:34:49 61° ENE 01:38:20 10° ENE
H-2A R/B 2.0 01:34:44 75° NE 01:34:44 75° NE 01:38:41 10° N
IRS-1C 4.0 01:29:54 10° NNE 01:35:17 84° WNW 01:36:02 67° SSW
SL-16 R/B 2.7 01:31:06 10° NNW 01:36:43 59° ENE 01:42:18 10° SE
CZ-4B R/B 4.3 01:34:30 10° ESE 01:36:55 18° ENE 01:39:21 10° NNE
STARLINK-1032 3.8 01:39:37 70° ENE 01:39:37 70° ENE 01:43:19 10° ENE
STARLINK-43 4.4 01:39:46 40° N 01:40:11 42° NNE 01:43:44 10° E
Cosmos 2082 4.2 01:38:18 37° SSE 01:40:16 55° ESE 01:45:51 10° NE
Cosmos 1908 Rocket 4.4 01:36:33 10° NNW 01:39:31 39° NW 01:39:31 39° NW
Lacrosse 5 rocket 3.3 01:41:23 18° NNW 01:42:15 19° NNW 01:45:09 10° NE
Cosmos 389 Rocket 4.1 01:43:11 28° ESE 01:43:50 31° E 01:46:59 10° NNE
STARLINK-1011 3.6 01:44:24 78° ENE 01:44:24 78° ENE 01:48:18 10° ENE
CZ-2D R/B 3.3 01:40:58 10° N 01:45:35 28° WNW 01:45:47 28° WNW
Cosmos 1634 Rocket 3.9 01:42:24 10° NNW 01:48:29 64° W 01:50:17 45° SSW
STARLINK-1036 3.5 01:49:12 83° N 01:49:12 83° N 01:53:18 10° ENE
STARLINK-1044 3.5 01:53:59 77° WNW 01:54:07 79° NNW 01:58:17 10° ENE
Cosmos 372 Rocket 4.1 01:54:53 50° W 01:55:40 55° WNW 02:00:48 10° NNE
Okean 3 4.4 01:53:49 26° SSE 01:55:44 44° E 01:59:44 10° NNE
USA 267 3.3 01:49:30 10° NE 01:56:03 70° SE 01:58:53 36° SSW
SL-08 R/B 3.7 01:58:01 45° W 01:58:01 45° W 02:02:28 10° NNW
ATLAS 3B R/B 3.7 01:53:20 18° S 01:57:43 37° ESE 02:03:44 10° NE
STARLINK-1047 3.5 01:58:44 68° WNW 01:59:05 74° NNW 02:03:14 10° ENE
STARLINK-1037 3.5 01:59:23 67° WNW 01:59:45 73° NNW 02:03:54 10° ENE
Cosmos 2237 Rocket 2.9 01:54:41 10° NW 01:58:51 35° W 01:58:51 35° W
Cosmos 1515 3.6 01:59:51 71° SSE 02:00:12 81° E 02:04:02 10° N
ERS-1 4.4 01:55:22 10° N 02:00:18 65° WNW 02:01:23 50° SW
Cosmos 1900 4.2 02:00:23 55° SW 02:01:26 81° NW 02:06:22 10° NNE
Meteor 1-19 Rocket 4.1 01:59:40 34° S 02:02:15 88° ESE 02:07:47 10° NNE
ATLAS 5 CENTAUR R/B 3.3 01:59:13 10° NNW 02:04:39 48° NE 02:10:54 10° ESE
Cosmos 494 Rocket 4.0 01:59:27 10° NNW 02:04:46 81° ENE 02:10:02 10° SSE
Okean 1 3.7 02:06:03 46° WNW 02:06:03 46° WNW 02:09:37 10° N
Cosmos 1544 2.9 02:02:38 10° N 02:06:18 90° N 02:06:48 65° S
Cosmos 1818 3.9 02:01:14 10° NNW 02:06:41 68° NE 02:12:05 10° SE
Cosmos 1300 Rocket 4.3 02:03:37 10° N 02:07:50 53° ENE 02:12:04 10° SSE
STARLINK-1059 3.7 02:08:19 53° W 02:09:04 65° NNW 02:13:12 10° NE
Cosmos 2221 Rocket 3.8 02:07:56 27° S 02:10:15 68° E 02:14:39 10° NNE
STARLINK-1054 4.4 02:09:53 35° S 02:10:47 40° SE 02:14:41 10° ENE
Cosmos 2263 Rocket 4.3 02:07:53 10° SSE 02:12:10 23° E 02:16:30 10° NE
STARLINK-1057 3.8 02:13:06 46° W 02:14:04 61° NNW 02:18:11 10° NE
SL-16 R/B 4.4 02:16:38 13° WNW 02:16:38 13° WNW 02:18:09 10° WNW
STARLINK-1062 4.3 02:14:40 35° S 02:15:44 44° SE 02:19:41 10° ENE
Landsat 5 3.2 02:15:51 54° WSW 02:16:05 56° W 02:19:53 10° NNW
Okean 2 Rocket 3.1 02:13:06 10° N 02:17:38 82° E 02:22:09 10° S
Sich 1 Rocket 3.5 02:14:35 10° NNW 02:18:55 58° W 02:20:31 35° SSW
STARLINK-1034 3.9 02:17:53 41° W 02:19:04 58° NNW 02:23:09 10° NE
Cosmos 2151 Rocket 4.1 02:14:43 10° N 02:19:04 58° ENE 02:23:24 10° SSE
Cosmos 1743 4.4 02:16:24 10° NNW 02:18:10 20° NW 02:18:10 20° NW
Cosmos 1975 3.0 02:16:26 10° NNW 02:20:19 47° W 02:20:39 46° WSW
Cosmos 2297 Rocket 2.7 02:18:26 32° WSW 02:20:25 43° NW 02:25:50 10° NNE
STARLINK-1053 4.2 02:19:28 35° S 02:20:43 47° SE 02:24:43 10° ENE
USA 238 DEB 3.9 02:18:58 30° WSW 02:22:19 58° NW 02:29:11 10° NE
USA 238 3.9 02:19:03 30° WSW 02:22:25 59° NW 02:29:18 10° NE
Cosmos 1689 Rocket 4.4 02:21:12 10° SE 02:23:48 27° ENE 02:26:24 10° N
Cosmos 1356 3.8 02:20:28 10° N 02:23:54 64° ENE 02:27:17 10° SSE
STARLINK-1068 4.0 02:22:39 36° W 02:24:02 55° NNW 02:28:07 10° NE
BREEZE-M DEB (TANK) 3.9 02:22:14 24° WNW 02:24:28 59° N 02:31:50 10° E
Meteor 2-9 Rocket 4.3 02:19:28 10° NNW 02:25:16 61° W 02:31:00 10° S
STARLINK-1061 4.1 02:24:13 34° SSW 02:25:38 51° SE 02:29:41 10° ENE
Cosmos 1269 Rocket 4.0 02:20:23 10° NNW 02:25:44 86° ENE 02:31:03 10° SSE
Cosmos 1048 Rocket 4.5 02:24:54 10° NW 02:29:49 38° WSW 02:32:51 21° SSW
Cosmos 2219 4.3 02:27:51 24° W 02:30:04 31° NW 02:35:10 10° N
Meteor 2-4 Rocket 3.8 02:25:32 16° S 02:30:24 86° W 02:36:19 10° N
STARLINK-1067 4.0 02:29:02 33° SSW 02:30:38 56° SE 02:34:42 10° ENE
CZ-2C R/B 2.9 02:26:47 10° N 02:30:47 61° WNW 02:32:21 34° SW
USA 234 3.4 02:24:24 10° ESE 02:30:56 79° NE 02:37:30 10° NW
COBE Rocket 3.8 02:28:43 11° S 02:33:09 59° W 02:37:47 10° NNW
STARLINK-1060 4.2 02:32:12 28° W 02:34:01 49° NNW 02:38:03 10° NE
STARLINK-1058 3.9 02:33:47 31° SSW 02:35:34 61° SE 02:39:40 10° ENE
Meteor 1-28 Rocket 4.4 02:36:21 24° WNW 02:36:21 24° WNW 02:38:46 10° NW
Cosmos 2279 Rocket 4.3 02:29:57 10° NNW 02:35:50 45° W 02:40:52 14° SSW
Nadezhda 4 Rocket 4.0 02:30:04 10° S 02:36:24 88° E 02:42:47 10° N
STARLINK-1030 4.3 02:37:00 25° W 02:39:02 47° NNW 02:43:03 10° NE
Cosmos 1125 Rocket 3.9 02:37:44 26° WSW 02:40:23 47° WNW 02:45:33 10° NNE
STARLINK-1043 3.8 02:38:35 29° SW 02:40:34 66° SE 02:44:40 10° ENE
STARLINK-1065 3.8 02:39:11 29° SW 02:41:11 66° SE 02:45:18 10° ENE
STARLINK-1020 4.3 02:41:48 23° W 02:44:03 45° NNW 02:48:03 10° NE
NOSS 3-2 (A) 4.1 02:42:51 21° W 02:46:29 44° NW 02:52:53 10° NNE
Cosmos 2227 Rocket 3.1 02:44:21 21° W 02:47:12 32° NW 02:52:16 10° N
ADEOS II 3.5 02:43:22 10° NNW 02:47:12 21° WNW 02:49:08 17° W
MSX 3.8 02:42:00 10° NNE 02:47:48 86° WNW 02:53:34 10° SSW
STARLINK-1052 4.4 02:46:34 20° W 02:49:02 43° NNW 02:53:01 10° NE
CENTAUR R/B 2.6 02:46:11 21° SW 02:50:24 68° NW 02:57:31 10° NE
STARLINK-1063 3.6 02:48:09 25° SW 02:50:31 76° SE 02:54:39 10° ENE
Cosmos 1943 3.9 02:49:43 10° NNW 02:55:22 57° ENE 03:00:58 10° SE
STARLINK-1064 3.6 02:52:56 23° SW 02:55:29 82° SE 02:59:38 10° ENE
STARLINK-42 4.5 02:55:00 10° NW 02:57:59 35° NNE 03:00:59 10° E
STARLINK-80 3.9 02:55:13 10° NW 02:58:59 60° NNE 03:02:45 10° ESE
STARLINK-1041 3.6 02:57:42 21° WSW 03:00:26 88° SSE 03:04:36 10° ENE
IDEFIX/ARIANE 42P 3.0 02:56:21 10° N 03:01:17 45° WNW 03:05:38 13° SW
CBERS 1 LM4 rocket 4.4 02:57:04 10° N 03:01:59 70° WNW 03:07:05 10° SSW
Okean 1 Rocket 3.2 02:59:35 10° N 03:03:59 78° E 03:08:22 10° SSE
STARLINK-1038 3.6 03:02:29 19° WSW 03:05:24 87° NW 03:09:34 10° ENE
BREEZE-M DEB (TANK) 1.4 03:05:30 18° WSW 03:07:39 86° NNW 03:09:44 10° ENE
ARIANE 5 R/B 4.1 03:04:52 10° NNW 03:08:32 20° WNW 03:11:22 13° W
CZ-4B R/B 2.2 03:05:52 10° SSW 03:09:01 32° W 03:12:12 10° NNW
STARLINK-1046 3.6 03:07:16 17° WSW 03:10:24 81° NNW 03:14:33 10° ENE
CZ-2C R/B 2.2 03:06:12 10° NNE 03:10:49 88° ESE 03:15:23 10° SSW
BREEZE-M DEB (TANK) 4.0 03:08:53 10° W 03:12:14 20° SW 03:15:13 10° S
STARLINK-1039 3.6 03:12:03 15° WSW 03:15:23 76° NNW 03:19:33 10° ENE
Meteor 1-4 Rocket 3.2 03:13:54 11° SW 03:17:21 39° WNW 03:20:56 10° N
STARLINK-43 3.6 03:14:34 10° WNW 03:18:07 45° SW 03:21:39 10° SE
NOSS 3-2 (C) 4.1 03:13:21 13° WSW 03:18:18 42° NW 03:24:41 10° NNE
Cosmos 389 Rocket 4.2 03:17:04 14° W 03:18:37 18° WNW 03:21:05 10° NNW
SL-16 R/B 3.2 03:16:03 10° NW 03:20:22 23° W 03:24:42 10° SSW
STARLINK-1045 3.7 03:16:51 14° WSW 03:20:22 72° NNW 03:24:32 10° ENE
Gbstr 26 Del rocket 4.4 03:16:32 10° SSW 03:22:25 46° SE 03:27:13 10° ENE
Lacrosse 5 rocket 3.7 03:19:49 10° NW 03:22:36 18° N 03:25:30 10° NE
COSMO-SKYMED 1 4.2 03:18:54 10° SE 03:22:56 39° ENE 03:26:59 10° N
STARLINK-26 3.3 03:19:51 10° WNW 03:23:20 76° NNE 03:26:47 10° ESE
PSLV R/B 3.9 03:19:41 10° SSE 03:23:53 82° WSW 03:28:06 10° NNW
STARLINK 1040 3.7 03:21:26 10° NW 03:24:04 43° NNE 03:26:42 10° E
ADEOS 3.6 03:19:48 10° N 03:25:00 65° WNW 03:30:09 10° SSW
STARLINK-55 3.7 03:22:00 10° NW 03:25:11 54° NNE 03:28:20 10° ESE
STARLINK-1050 3.8 03:21:38 12° WSW 03:25:22 67° NNW 03:29:31 10° ENE
Cosmos 1674 Rocket 3.9 03:21:14 10° SSW 03:25:27 46° WNW 03:29:41 10° N
Cosmos 1484 Rocket 3.8 03:22:45 10° NNE 03:26:28 47° E 03:30:05 10° S
STARLINK-28 3.5 03:25:58 10° NW 03:29:10 61° NNE 03:32:20 10° ESE
Cosmos 1066 Rocket 4.3 03:23:42 10° SSW 03:29:34 81° W 03:35:28 10° N
STARLINK-1055 3.8 03:26:25 11° WSW 03:30:22 63° NNW 03:34:30 10° NE
PAYLOAD A 4.3 03:25:24 10° N 03:30:40 55° WNW 03:35:48 10° SSW
CZ-4B R/B 3.6 03:30:56 10° NNE 03:35:16 64° ESE 03:39:43 10° S
STARLINK-33 3.5 03:32:10 10° NW 03:35:22 61° NNE 03:38:32 10° ESE
STARLINK-1022 3.9 03:31:16 10° WSW 03:35:22 59° NNW 03:39:29 10° NE
Cosmos 1805 3.4 03:31:32 10° N 03:35:26 81° E 03:39:19 10° S
Cosmos 1378 3.4 03:32:16 10° S 03:35:58 76° E 03:39:43 10° NNE
USA 267 3.8 03:32:40 10° NE 03:38:54 50° NNW 03:45:09 10° W
STARLINK-1042 4.0 03:36:16 10° WSW 03:40:21 56° NNW 03:44:27 10° NE
STARLINK-66 3.3 03:37:16 10° NW 03:40:29 67° NNE 03:43:42 10° ESE
SeaSat 1 2.6 03:36:38 10° SSE 03:41:27 55° WSW 03:46:19 10° NW
STARLINK-58 4.3 03:39:21 10° NW 03:42:22 38° NNE 03:45:23 10° E
Cosmos 1603 3.9 03:38:14 10° NW 03:43:40 51° WSW 03:49:05 10° S
Meteor 1-15 Rocket 4.5 03:39:32 10° NNW 03:44:53 48° W 03:50:17 10° SSW
STARLINK-1056 4.1 03:41:17 10° W 03:45:21 53° NNW 03:49:26 10° NE
Meteor 1-23 Rocket 4.5 03:40:56 10° SSW 03:46:32 55° WNW 03:52:14 10° N
ATLAS 3B R/B 3.0 03:41:44 10° WSW 03:48:13 53° NW 03:54:44 10° NNE
